owner,sensor,date,latitude,longitude,vertical_datum,sea_water_temperature,qcFlag
Chevron,ioos:station:wmo:42888:1,2021-08-01T00:07:00Z,28.9511,-88.2502,13.7,29.8,11111222
Chevron,ioos:station:wmo:42888:1,2021-08-01T00:17:00Z,28.9511,-88.2502,13.5,29.7,11111222
Chevron,ioos:station:wmo:42888:1,2021-08-01T00:27:00Z,28.9511,-88.2502,13.7,29.7,11111222
Chevron,ioos:station:wmo:42888:1,2021-08-01T00:37:00Z,28.9512,-88.2502,13.7,29.7,11111222
Chevron,ioos:station:wmo:42888:1,2021-08-01T00:47:00Z,28.9510,-88.2501,13.5,29.8,11111222
Chevron,ioos:station:wmo:42888:1,2021-08-01T00:57:00Z,28.9511,-88.2502,13.6,29.6,11111222
Chevron,ioos:station:wmo:42888:1,2021-08-01T01:07:00Z,28.9512,-88.2502,13.7,29.6,11111222
Chevron,ioos:station:wmo:42888:1,2021-08-01T01:17:00Z,28.9512,-88.2501,13.5,29.6,11111222
Chevron,ioos:station:wmo:42888:1,2021-08-01T01:27:00Z,28.9512,-88.2502,13.4,29.6,11111222
Chevron,ioos:station:wmo:42888:1,2021-08-01T01:37:00Z,28.9512,-88.2501,13.7,29.7,11111222
Chevron,ioos:station:wmo:42888:1,2021-08-01T01:47:00Z,28.9512,-88.2502,13.6,29.6,11111222
Chevron,ioos:station:wmo:42888:1,2021-08-01T01:57:00Z,28.9511,-88.2502,13.3,29.7,11111222
Chevron,ioos:station:wmo:42888:1,2021-08-01T02:07:00Z,28.9512,-88.2501,13.6,29.6,11111222
Chevron,ioos:station:wmo:42888:1,2021-08-01T02:17:00Z,28.9511,-88.2502,13.6,29.6,11111222
Chevron,ioos:station:wmo:42888:1,2021-08-01T02:27:00Z,28.9512,-88.2502,13.7,29.6,11111222
Chevron,ioos:station:wmo:42888:1,2021-08-01T02:37:00Z,28.9512,-88.2502,13.6,29.6,11111222
Chevron,ioos:station:wmo:42888:1,2021-08-01T02:47:00Z,28.9511,-88.2502,13.7,29.7,11111222
Chevron,ioos:station:wmo:42888:1,2021-08-01T02:57:00Z,28.9512,-88.2502,13.6,29.6,11111222
Chevron,ioos:station:wmo:42888:1,2021-08-01T03:07:00Z,28.9512,-88.2502,13.6,29.6,11111222
Chevron,ioos:station:wmo:42888:1,2021-08-01T03:17:00Z,28.9511,-88.2501,13.7,29.6,11111222
Chevron,ioos:station:wmo:42888:1,2021-08-01T03:27:00Z,28.9511,-88.2501,13.8,29.6,11111222
Chevron,ioos:station:wmo:42888:1,2021-08-01T03:37:00Z,28.9512,-88.2501,14.0,29.6,11111222
Chevron,ioos:station:wmo:42888:1,2021-08-01T03:47:00Z,28.9511,-88.2502,13.6,29.6,11111222
Chevron,ioos:station:wmo:42888:1,2021-08-01T03:57:00Z,28.9511,-88.2501,13.8,29.6,11111222
Chevron,ioos:station:wmo:42888:1,2021-08-01T04:07:00Z,28.9511,-88.2501,13.7,29.6,11111222
Chevron,ioos:station:wmo:42888:1,2021-08-01T04:17:00Z,28.9511,-88.2501,13.8,29.6,11111222
Chevron,ioos:station:wmo:42888:1,2021-08-01T04:27:00Z,28.9511,-88.2501,13.9,29.5,11111222
Chevron,ioos:station:wmo:42888:1,2021-08-01T04:37:00Z,28.9512,-88.2502,13.9,29.5,11111222
Chevron,ioos:station:wmo:42888:1,2021-08-01T04:47:00Z,28.9511,-88.2501,13.7,29.6,11111222
Chevron,ioos:station:wmo:42888:1,2021-08-01T04:57:00Z,28.9512,-88.2502,13.8,29.6,11111222
Chevron,ioos:station:wmo:42888:1,2021-08-01T05:07:00Z,28.9511,-88.2501,13.7,29.6,11111222
Chevron,ioos:station:wmo:42888:1,2021-08-01T05:17:00Z,28.9511,-88.2502,13.6,29.6,11111222
Chevron,ioos:station:wmo:42888:1,2021-08-01T05:27:00Z,28.9511,-88.2502,13.4,29.6,11111222
Chevron,ioos:station:wmo:42888:1,2021-08-01T05:37:00Z,28.9512,-88.2502,13.6,29.6,11111222
Chevron,ioos:station:wmo:42888:1,2021-08-01T05:47:00Z,28.9512,-88.2502,13.5,29.6,11111222
Chevron,ioos:station:wmo:42888:1,2021-08-01T05:57:00Z,28.9511,-88.2501,13.5,29.6,11111222
Chevron,ioos:station:wmo:42888:1,2021-08-01T06:07:00Z,28.9511,-88.2501,13.5,29.6,11111222
Chevron,ioos:station:wmo:42888:1,2021-08-01T06:17:00Z,28.9511,-88.2502,13.5,29.6,11111222
Chevron,ioos:station:wmo:42888:1,2021-08-01T06:27:00Z,28.9511,-88.2501,13.6,29.6,11111222
Chevron,ioos:station:wmo:42888:1,2021-08-01T06:37:00Z,28.9511,-88.2502,13.7,29.6,11111222
Chevron,ioos:station:wmo:42888:1,2021-08-01T06:47:00Z,28.9512,-88.2502,13.6,29.5,11111222
Chevron,ioos:station:wmo:42888:1,2021-08-01T06:57:00Z,28.9511,-88.2502,13.9,29.5,11111222
Chevron,ioos:station:wmo:42888:1,2021-08-01T07:07:00Z,28.9511,-88.2502,13.5,29.5,11111222
Chevron,ioos:station:wmo:42888:1,2021-08-01T07:17:00Z,28.9512,-88.2501,13.6,29.5,11111222
Chevron,ioos:station:wmo:42888:1,2021-08-01T07:27:00Z,28.9511,-88.2502,13.6,29.6,11111222
Chevron,ioos:station:wmo:42888:1,2021-08-01T07:37:00Z,28.9512,-88.2501,13.6,29.5,11111222
Chevron,ioos:station:wmo:42888:1,2021-08-01T07:47:00Z,28.9512,-88.2502,14.0,29.3,11111222
Chevron,ioos:station:wmo:42888:1,2021-08-01T07:57:00Z,28.9512,-88.2501,13.6,29.2,11111222
Chevron,ioos:station:wmo:42888:1,2021-08-01T08:07:00Z,28.9512,-88.2502,13.7,29.2,11111222
Chevron,ioos:station:wmo:42888:1,2021-08-01T08:17:00Z,28.9511,-88.2501,13.8,29.1,11111222
Chevron,ioos:station:wmo:42888:1,2021-08-01T08:27:00Z,28.9511,-88.2501,13.9,29.2,11111222
Chevron,ioos:station:wmo:42888:1,2021-08-01T08:37:00Z,28.9511,-88.2502,13.5,29.1,11111222
Chevron,ioos:station:wmo:42888:1,2021-08-01T08:47:00Z,28.9511,-88.2502,13.6,29.2,11111222
Chevron,ioos:station:wmo:42888:1,2021-08-01T08:57:00Z,28.9511,-88.2502,13.5,29.2,11111222
Chevron,ioos:station:wmo:42888:1,2021-08-01T09:07:00Z,28.9512,-88.2501,13.6,29.2,11111222
Chevron,ioos:station:wmo:42888:1,2021-08-01T09:17:00Z,28.9512,-88.2501,13.7,29.2,11111222
Chevron,ioos:station:wmo:42888:1,2021-08-01T09:27:00Z,28.9511,-88.2502,13.6,29.2,11111222
Chevron,ioos:station:wmo:42888:1,2021-08-01T09:37:00Z,28.9512,-88.2502,13.5,29.3,11111222
Chevron,ioos:station:wmo:42888:1,2021-08-01T09:47:00Z,28.9512,-88.2501,13.8,29.3,11111222
Chevron,ioos:station:wmo:42888:1,2021-08-01T09:57:00Z,28.9512,-88.2502,13.8,29.3,11111222
Chevron,ioos:station:wmo:42888:1,2021-08-01T10:07:00Z,28.9511,-88.2502,13.9,29.3,11111222
Chevron,ioos:station:wmo:42888:1,2021-08-01T10:17:00Z,28.9512,-88.2502,13.7,29.2,11111222
Chevron,ioos:station:wmo:42888:1,2021-08-01T10:27:00Z,28.9512,-88.2502,14.0,29.2,11111222
Chevron,ioos:station:wmo:42888:1,2021-08-01T10:37:00Z,28.9512,-88.2502,13.5,29.3,11111222
Chevron,ioos:station:wmo:42888:1,2021-08-01T10:47:00Z,28.9517,-88.2506,13.9,29.3,11111222
Chevron,ioos:station:wmo:42888:1,2021-08-01T10:57:00Z,28.9517,-88.2506,13.6,29.4,11111222
Chevron,ioos:station:wmo:42888:1,2021-08-01T11:07:00Z,28.9517,-88.2506,13.9,29.3,11111222
Chevron,ioos:station:wmo:42888:1,2021-08-01T11:17:00Z,28.9517,-88.2506,13.8,29.3,11111222
Chevron,ioos:station:wmo:42888:1,2021-08-01T11:27:00Z,28.9517,-88.2506,13.6,29.4,11111222
Chevron,ioos:station:wmo:42888:1,2021-08-01T11:37:00Z,28.9517,-88.2506,13.8,29.5,11111222
Chevron,ioos:station:wmo:42888:1,2021-08-01T11:47:00Z,28.9517,-88.2506,13.9,29.7,11111222
Chevron,ioos:station:wmo:42888:1,2021-08-01T11:57:00Z,28.9517,-88.2506,13.7,29.7,11111222
Chevron,ioos:station:wmo:42888:1,2021-08-01T12:07:00Z,28.9517,-88.2506,13.6,29.6,11111222
Chevron,ioos:station:wmo:42888:1,2021-08-01T12:17:00Z,28.9517,-88.2506,13.5,29.7,11111222
Chevron,ioos:station:wmo:42888:1,2021-08-01T12:27:00Z,28.9517,-88.2506,13.6,29.8,11111222
Chevron,ioos:station:wmo:42888:1,2021-08-01T12:37:00Z,28.9517,-88.2506,13.7,29.7,11111222
Chevron,ioos:station:wmo:42888:1,2021-08-01T12:47:00Z,28.9517,-88.2506,13.8,29.8,11111222
Chevron,ioos:station:wmo:42888:1,2021-08-01T12:57:00Z,28.9517,-88.2506,13.9,29.8,11111222
Chevron,ioos:station:wmo:42888:1,2021-08-01T13:07:00Z,28.9517,-88.2506,13.8,29.8,11111222
Chevron,ioos:station:wmo:42888:1,2021-08-01T13:17:00Z,28.9517,-88.2506,13.7,29.7,11111222
Chevron,ioos:station:wmo:42888:1,2021-08-01T13:27:00Z,28.9517,-88.2506,13.8,29.7,11111222
Chevron,ioos:station:wmo:42888:1,2021-08-01T13:37:00Z,28.9517,-88.2506,13.6,29.8,11111222
Chevron,ioos:station:wmo:42888:1,2021-08-01T13:47:00Z,28.9517,-88.2506,13.7,29.8,11111222
Chevron,ioos:station:wmo:42888:1,2021-08-01T13:57:00Z,28.9517,-88.2506,13.8,29.7,11111222
Chevron,ioos:station:wmo:42888:1,2021-08-01T14:07:00Z,28.9517,-88.2506,13.7,29.7,11111222
Chevron,ioos:station:wmo:42888:1,2021-08-01T14:17:00Z,28.9517,-88.2506,13.6,29.8,11111222
Chevron,ioos:station:wmo:42888:1,2021-08-01T14:27:00Z,28.9517,-88.2506,13.5,29.8,11111222
Chevron,ioos:station:wmo:42888:1,2021-08-01T14:37:00Z,28.9517,-88.2506,13.5,29.8,11111222
Chevron,ioos:station:wmo:42888:1,2021-08-01T14:47:00Z,28.9517,-88.2506,13.7,29.8,11111222
Chevron,ioos:station:wmo:42888:1,2021-08-01T14:57:00Z,28.9517,-88.2506,13.6,29.8,11111222
Chevron,ioos:station:wmo:42888:1,2021-08-01T15:07:00Z,28.9517,-88.2506,13.5,29.6,11111222
Chevron,ioos:station:wmo:42888:1,2021-08-01T15:17:00Z,28.9517,-88.2506,13.5,29.7,11111222
Chevron,ioos:station:wmo:42888:1,2021-08-01T15:27:00Z,28.9517,-88.2506,13.3,29.8,11111222
Chevron,ioos:station:wmo:42888:1,2021-08-01T15:41:00Z,28.9512,-88.2502,13.7,29.7,11111222
Chevron,ioos:station:wmo:42888:1,2021-08-01T15:51:00Z,28.9512,-88.2502,13.5,29.7,11111222
Chevron,ioos:station:wmo:42888:1,2021-08-01T16:01:00Z,28.9511,-88.2501,13.6,29.8,11111222
Chevron,ioos:station:wmo:42888:1,2021-08-01T16:11:00Z,28.9512,-88.2502,13.6,29.8,11111222
Chevron,ioos:station:wmo:42888:1,2021-08-01T16:21:00Z,28.9512,-88.2502,13.5,29.8,11111222
Chevron,ioos:station:wmo:42888:1,2021-08-01T16:31:00Z,28.9512,-88.2502,13.4,29.8,11111222
Chevron,ioos:station:wmo:42888:1,2021-08-01T16:41:00Z,28.9511,-88.2502,13.4,29.8,11111222
Chevron,ioos:station:wmo:42888:1,2021-08-01T16:51:00Z,28.9511,-88.2502,13.7,29.8,11111222
Chevron,ioos:station:wmo:42888:1,2021-08-01T17:01:00Z,28.9511,-88.2502,13.7,29.8,11111222
Chevron,ioos:station:wmo:42888:1,2021-08-01T17:11:00Z,28.9511,-88.2502,13.7,29.8,11111222
Chevron,ioos:station:wmo:42888:1,2021-08-01T17:21:00Z,28.9511,-88.2502,13.5,29.8,11111222
Chevron,ioos:station:wmo:42888:1,2021-08-01T17:31:00Z,28.9511,-88.2501,13.4,29.8,11111222
Chevron,ioos:station:wmo:42888:1,2021-08-01T17:41:00Z,28.9511,-88.2502,13.5,29.8,11111222
Chevron,ioos:station:wmo:42888:1,2021-08-01T17:51:00Z,28.9512,-88.2502,13.3,29.8,11111222
Chevron,ioos:station:wmo:42888:1,2021-08-01T18:01:00Z,28.9511,-88.2501,13.7,29.8,11111222
Chevron,ioos:station:wmo:42888:1,2021-08-01T18:11:00Z,28.9512,-88.2502,13.5,29.8,11111222
Chevron,ioos:station:wmo:42888:1,2021-08-01T18:21:00Z,28.9512,-88.2502,13.7,29.8,11111222
Chevron,ioos:station:wmo:42888:1,2021-08-01T18:31:00Z,28.9511,-88.2502,13.7,29.8,11111222
Chevron,ioos:station:wmo:42888:1,2021-08-01T18:41:00Z,28.9511,-88.2502,13.6,29.8,11111222
Chevron,ioos:station:wmo:42888:1,2021-08-01T18:51:00Z,28.9511,-88.2501,13.7,29.8,11111222
Chevron,ioos:station:wmo:42888:1,2021-08-01T19:01:00Z,28.9511,-88.2502,13.7,29.8,11111222
Chevron,ioos:station:wmo:42888:1,2021-08-01T19:11:00Z,28.9512,-88.2501,13.7,29.8,11111222
Chevron,ioos:station:wmo:42888:1,2021-08-01T19:21:00Z,28.9512,-88.2502,13.6,29.8,11111222
Chevron,ioos:station:wmo:42888:1,2021-08-01T19:31:00Z,28.9511,-88.2502,13.5,29.8,11111222
Chevron,ioos:station:wmo:42888:1,2021-08-01T19:41:00Z,28.9511,-88.2502,13.7,29.9,11111222
Chevron,ioos:station:wmo:42888:1,2021-08-01T19:51:00Z,28.9511,-88.2501,13.8,29.9,11111222
Chevron,ioos:station:wmo:42888:1,2021-08-01T20:01:00Z,28.9511,-88.2501,13.6,29.9,11111222
Chevron,ioos:station:wmo:42888:1,2021-08-01T20:11:00Z,28.9512,-88.2502,13.3,29.9,11111222
Chevron,ioos:station:wmo:42888:1,2021-08-01T20:21:00Z,28.9512,-88.2502,13.5,29.9,11111222
Chevron,ioos:station:wmo:42888:1,2021-08-01T20:31:00Z,28.9512,-88.2502,13.4,29.9,11111222
Chevron,ioos:station:wmo:42888:1,2021-08-01T20:41:00Z,28.9511,-88.2501,13.6,29.9,11111222
Chevron,ioos:station:wmo:42888:1,2021-08-01T20:51:00Z,28.9511,-88.2501,13.3,29.9,11111222
Chevron,ioos:station:wmo:42888:1,2021-08-01T21:01:00Z,28.9512,-88.2502,13.6,29.9,11111222
Chevron,ioos:station:wmo:42888:1,2021-08-01T21:11:00Z,28.9512,-88.2502,13.5,29.9,11111222
Chevron,ioos:station:wmo:42888:1,2021-08-01T21:21:00Z,28.9512,-88.2501,13.5,29.9,11111222
Chevron,ioos:station:wmo:42888:1,2021-08-01T21:31:00Z,28.9511,-88.2502,13.6,29.8,11111222
Chevron,ioos:station:wmo:42888:1,2021-08-01T21:41:00Z,28.9511,-88.2502,13.5,29.8,11111222
Chevron,ioos:station:wmo:42888:1,2021-08-01T21:51:00Z,28.9512,-88.2502,13.7,29.8,11111222
Chevron,ioos:station:wmo:42888:1,2021-08-01T22:01:00Z,28.9512,-88.2502,13.3,29.8,11111222
Chevron,ioos:station:wmo:42888:1,2021-08-01T22:11:00Z,28.9512,-88.2501,13.5,29.8,11111222
Chevron,ioos:station:wmo:42888:1,2021-08-01T22:21:00Z,28.9511,-88.2502,13.6,29.8,11111222
Chevron,ioos:station:wmo:42888:1,2021-08-01T22:31:00Z,28.9511,-88.2502,13.7,29.7,11111222
Chevron,ioos:station:wmo:42888:1,2021-08-01T22:41:00Z,28.9511,-88.2502,13.6,29.7,11111222
Chevron,ioos:station:wmo:42888:1,2021-08-01T22:51:00Z,28.9511,-88.2501,13.6,29.7,11111222
Chevron,ioos:station:wmo:42888:1,2021-08-01T23:01:00Z,28.9512,-88.2501,13.9,29.6,11111222
Chevron,ioos:station:wmo:42888:1,2021-08-01T23:11:00Z,28.9512,-88.2502,13.7,29.6,11111222
Chevron,ioos:station:wmo:42888:1,2021-08-01T23:21:00Z,28.9512,-88.2502,13.7,29.5,11111222
Chevron,ioos:station:wmo:42888:1,2021-08-01T23:31:00Z,28.9511,-88.2502,13.5,29.5,11111222
Chevron,ioos:station:wmo:42888:1,2021-08-01T23:41:00Z,28.9512,-88.2502,13.5,29.5,11111222
Chevron,ioos:station:wmo:42888:1,2021-08-01T23:51:00Z,28.9512,-88.2502,13.4,29.5,11111222
Chevron,ioos:station:wmo:42888:1,2021-08-02T00:01:00Z,28.9511,-88.2501,13.5,29.4,11111222
Chevron,ioos:station:wmo:42888:1,2021-08-02T00:11:00Z,28.9512,-88.2502,13.5,29.5,11111222
Chevron,ioos:station:wmo:42888:1,2021-08-02T00:21:00Z,28.9510,-88.2501,13.5,29.6,11111222
Chevron,ioos:station:wmo:42888:1,2021-08-02T00:31:00Z,28.9511,-88.2502,13.5,29.6,11111222
Chevron,ioos:station:wmo:42888:1,2021-08-02T00:41:00Z,28.9511,-88.2501,13.6,29.5,11111222
Chevron,ioos:station:wmo:42888:1,2021-08-02T00:51:00Z,28.9511,-88.2502,13.6,29.5,11111222
Chevron,ioos:station:wmo:42888:1,2021-08-02T01:01:00Z,28.9512,-88.2502,13.5,29.5,11111222
Chevron,ioos:station:wmo:42888:1,2021-08-02T01:11:00Z,28.9511,-88.2502,13.7,29.5,11111222
Chevron,ioos:station:wmo:42888:1,2021-08-02T01:21:00Z,28.9511,-88.2502,13.5,29.4,11111222
Chevron,ioos:station:wmo:42888:1,2021-08-02T01:31:00Z,28.9512,-88.2501,13.5,29.5,11111222
Chevron,ioos:station:wmo:42888:1,2021-08-02T01:41:00Z,28.9512,-88.2502,13.5,29.5,11111222
Chevron,ioos:station:wmo:42888:1,2021-08-02T01:51:00Z,28.9511,-88.2502,13.7,29.6,11111222
Chevron,ioos:station:wmo:42888:1,2021-08-02T02:01:00Z,28.9511,-88.2502,13.6,29.5,11111222
Chevron,ioos:station:wmo:42888:1,2021-08-02T02:11:00Z,28.9512,-88.2502,13.5,29.6,11111222
Chevron,ioos:station:wmo:42888:1,2021-08-02T02:21:00Z,28.9511,-88.2502,13.8,29.6,11111222
Chevron,ioos:station:wmo:42888:1,2021-08-02T02:31:00Z,28.9512,-88.2501,13.6,29.6,11111222
Chevron,ioos:station:wmo:42888:1,2021-08-02T02:41:00Z,28.9512,-88.2501,13.7,29.6,11111222
Chevron,ioos:station:wmo:42888:1,2021-08-02T02:51:00Z,28.9511,-88.2502,13.7,29.7,11111222
Chevron,ioos:station:wmo:42888:1,2021-08-02T03:01:00Z,28.9512,-88.2501,13.7,29.8,11111222
Chevron,ioos:station:wmo:42888:1,2021-08-02T03:11:00Z,28.9511,-88.2502,13.6,29.7,11111222
Chevron,ioos:station:wmo:42888:1,2021-08-02T03:21:00Z,28.9511,-88.2502,13.5,29.6,11111222
Chevron,ioos:station:wmo:42888:1,2021-08-02T03:31:00Z,28.9512,-88.2502,13.6,29.5,11111222
Chevron,ioos:station:wmo:42888:1,2021-08-02T03:41:00Z,28.9512,-88.2502,13.9,29.4,11111222
Chevron,ioos:station:wmo:42888:1,2021-08-02T03:51:00Z,28.9511,-88.2501,13.6,29.2,11111222
Chevron,ioos:station:wmo:42888:1,2021-08-02T04:01:00Z,28.9511,-88.2502,13.7,29.3,11111222
Chevron,ioos:station:wmo:42888:1,2021-08-02T04:11:00Z,28.9512,-88.2502,13.6,29.3,11111222
Chevron,ioos:station:wmo:42888:1,2021-08-02T04:21:00Z,28.9512,-88.2502,13.6,29.4,11111222
Chevron,ioos:station:wmo:42888:1,2021-08-02T04:31:00Z,28.9512,-88.2502,13.5,29.3,11111222
Chevron,ioos:station:wmo:42888:1,2021-08-02T04:41:00Z,28.9512,-88.2502,13.7,29.4,11111222
Chevron,ioos:station:wmo:42888:1,2021-08-02T04:51:00Z,28.9512,-88.2502,13.5,29.3,11111222
Chevron,ioos:station:wmo:42888:1,2021-08-02T05:01:00Z,28.9512,-88.2502,13.7,29.4,11111222
Chevron,ioos:station:wmo:42888:1,2021-08-02T05:11:00Z,28.9512,-88.2501,13.7,29.4,11111222
Chevron,ioos:station:wmo:42888:1,2021-08-02T05:21:00Z,28.9511,-88.2502,13.8,29.4,11111222
Chevron,ioos:station:wmo:42888:1,2021-08-02T05:31:00Z,28.9511,-88.2501,13.7,29.3,11111222
Chevron,ioos:station:wmo:42888:1,2021-08-02T05:41:00Z,28.9512,-88.2501,13.5,29.3,11111222
Chevron,ioos:station:wmo:42888:1,2021-08-02T05:51:00Z,28.9512,-88.2502,13.6,29.2,11111222
Chevron,ioos:station:wmo:42888:1,2021-08-02T06:01:00Z,28.9511,-88.2502,13.6,29.2,11111222
Chevron,ioos:station:wmo:42888:1,2021-08-02T06:11:00Z,28.9511,-88.2502,13.6,29.3,11111222
Chevron,ioos:station:wmo:42888:1,2021-08-02T06:21:00Z,28.9512,-88.2501,13.4,29.3,11111222
Chevron,ioos:station:wmo:42888:1,2021-08-02T06:31:00Z,28.9512,-88.2501,13.8,29.3,11111222
Chevron,ioos:station:wmo:42888:1,2021-08-02T06:41:00Z,28.9511,-88.2502,13.5,29.3,11111222
Chevron,ioos:station:wmo:42888:1,2021-08-02T06:51:00Z,28.9512,-88.2502,13.3,29.2,11111222
Chevron,ioos:station:wmo:42888:1,2021-08-02T07:01:00Z,28.9511,-88.2502,13.6,29.4,11111222
Chevron,ioos:station:wmo:42888:1,2021-08-02T07:11:00Z,28.9512,-88.2502,13.4,29.5,11111222
Chevron,ioos:station:wmo:42888:1,2021-08-02T07:21:00Z,28.9512,-88.2502,13.7,29.5,11111222
Chevron,ioos:station:wmo:42888:1,2021-08-02T07:31:00Z,28.9512,-88.2501,13.5,29.5,11111222
Chevron,ioos:station:wmo:42888:1,2021-08-02T07:41:00Z,28.9511,-88.2502,13.6,29.5,11111222
Chevron,ioos:station:wmo:42888:1,2021-08-02T07:51:00Z,28.9511,-88.2502,13.6,29.6,11111222
Chevron,ioos:station:wmo:42888:1,2021-08-02T08:01:00Z,28.9511,-88.2501,13.7,29.6,11111222
Chevron,ioos:station:wmo:42888:1,2021-08-02T08:11:00Z,28.9512,-88.2502,13.3,29.6,11111222
Chevron,ioos:station:wmo:42888:1,2021-08-02T08:21:00Z,28.9512,-88.2502,13.4,29.6,11111222
Chevron,ioos:station:wmo:42888:1,2021-08-02T08:31:00Z,28.9511,-88.2502,13.7,29.5,11111222
Chevron,ioos:station:wmo:42888:1,2021-08-02T08:41:00Z,28.9512,-88.2502,13.6,29.5,11111222
Chevron,ioos:station:wmo:42888:1,2021-08-02T08:51:00Z,28.9512,-88.2502,13.7,29.5,11111222
Chevron,ioos:station:wmo:42888:1,2021-08-02T09:01:00Z,28.9511,-88.2502,13.6,29.6,11111222
Chevron,ioos:station:wmo:42888:1,2021-08-02T09:11:00Z,28.9511,-88.2501,13.5,29.6,11111222
Chevron,ioos:station:wmo:42888:1,2021-08-02T09:21:00Z,28.9511,-88.2501,13.5,29.4,11111222
Chevron,ioos:station:wmo:42888:1,2021-08-02T09:31:00Z,28.9511,-88.2502,13.7,29.1,11111222
Chevron,ioos:station:wmo:42888:1,2021-08-02T09:41:00Z,28.9511,-88.2501,13.9,29.1,11111222
Chevron,ioos:station:wmo:42888:1,2021-08-02T09:51:00Z,28.9512,-88.2502,14.0,28.8,11111222
Chevron,ioos:station:wmo:42888:1,2021-08-02T10:01:00Z,28.9511,-88.2502,13.8,28.9,11111222
Chevron,ioos:station:wmo:42888:1,2021-08-02T10:11:00Z,28.9512,-88.2502,13.8,28.9,11111222
Chevron,ioos:station:wmo:42888:1,2021-08-02T10:21:00Z,28.9512,-88.2501,13.8,28.8,11111222
Chevron,ioos:station:wmo:42888:1,2021-08-02T10:31:00Z,28.9511,-88.2502,13.5,29.0,11111222
Chevron,ioos:station:wmo:42888:1,2021-08-02T10:41:00Z,28.9511,-88.2501,13.7,29.1,11111222
Chevron,ioos:station:wmo:42888:1,2021-08-02T10:51:00Z,28.9511,-88.2502,13.5,29.3,11111222
Chevron,ioos:station:wmo:42888:1,2021-08-02T11:01:00Z,28.9511,-88.2502,13.3,29.5,11111222
Chevron,ioos:station:wmo:42888:1,2021-08-02T11:11:00Z,28.9511,-88.2502,13.9,29.5,11111222
Chevron,ioos:station:wmo:42888:1,2021-08-02T11:21:00Z,28.9512,-88.2502,13.5,29.6,11111222
Chevron,ioos:station:wmo:42888:1,2021-08-02T11:31:00Z,28.9511,-88.2501,13.5,29.8,11111222
Chevron,ioos:station:wmo:42888:1,2021-08-02T11:41:00Z,28.9512,-88.2502,13.4,29.7,11111222
Chevron,ioos:station:wmo:42888:1,2021-08-02T11:51:00Z,28.9512,-88.2502,13.3,29.8,11111222
Chevron,ioos:station:wmo:42888:1,2021-08-02T12:01:00Z,28.9511,-88.2502,13.3,29.8,11111222
Chevron,ioos:station:wmo:42888:1,2021-08-02T12:11:00Z,28.9512,-88.2502,13.5,29.8,11111222
Chevron,ioos:station:wmo:42888:1,2021-08-02T12:21:00Z,28.9512,-88.2502,13.5,29.8,11111222
Chevron,ioos:station:wmo:42888:1,2021-08-02T12:31:00Z,28.9511,-88.2502,13.6,29.8,11111222
Chevron,ioos:station:wmo:42888:1,2021-08-02T12:41:00Z,28.9512,-88.2501,13.9,29.4,11111222
Chevron,ioos:station:wmo:42888:1,2021-08-02T12:51:00Z,28.9511,-88.2501,13.8,29.7,11111222
Chevron,ioos:station:wmo:42888:1,2021-08-02T13:01:00Z,28.9511,-88.2502,13.5,29.7,11111222
Chevron,ioos:station:wmo:42888:1,2021-08-02T13:11:00Z,28.9512,-88.2502,13.8,29.7,11111222
Chevron,ioos:station:wmo:42888:1,2021-08-02T13:21:00Z,28.9512,-88.2502,13.5,29.8,11111222
Chevron,ioos:station:wmo:42888:1,2021-08-02T13:31:00Z,28.9512,-88.2502,13.5,29.8,11111222
Chevron,ioos:station:wmo:42888:1,2021-08-02T13:41:00Z,28.9512,-88.2502,13.8,29.8,11111222
Chevron,ioos:station:wmo:42888:1,2021-08-02T13:51:00Z,28.9511,-88.2502,13.5,29.8,11111222
Chevron,ioos:station:wmo:42888:1,2021-08-02T14:01:00Z,28.9512,-88.2502,13.6,29.8,11111222
Chevron,ioos:station:wmo:42888:1,2021-08-02T14:11:00Z,28.9511,-88.2502,13.8,29.8,11111222
Chevron,ioos:station:wmo:42888:1,2021-08-02T14:21:00Z,28.9512,-88.2502,13.5,29.8,11111222
Chevron,ioos:station:wmo:42888:1,2021-08-02T14:31:00Z,28.9512,-88.2502,13.7,29.8,11111222
Chevron,ioos:station:wmo:42888:1,2021-08-02T14:41:00Z,28.9512,-88.2502,13.8,29.8,11111222
Chevron,ioos:station:wmo:42888:1,2021-08-02T14:51:00Z,28.9511,-88.2502,13.4,29.8,11111222
Chevron,ioos:station:wmo:42888:1,2021-08-02T15:01:00Z,28.9511,-88.2502,13.7,29.8,11111222
Chevron,ioos:station:wmo:42888:1,2021-08-02T15:11:00Z,28.9512,-88.2502,13.4,29.8,11111222
Chevron,ioos:station:wmo:42888:1,2021-08-02T15:21:00Z,28.9511,-88.2502,13.6,29.8,11111222
Chevron,ioos:station:wmo:42888:1,2021-08-02T15:31:00Z,28.9512,-88.2502,13.7,29.8,11111222
Chevron,ioos:station:wmo:42888:1,2021-08-02T15:41:00Z,28.9511,-88.2502,13.3,29.8,11111222
Chevron,ioos:station:wmo:42888:1,2021-08-02T15:51:00Z,28.9511,-88.2501,13.5,29.8,11111222
Chevron,ioos:station:wmo:42888:1,2021-08-02T16:01:00Z,28.9511,-88.2502,13.7,29.8,11111222
Chevron,ioos:station:wmo:42888:1,2021-08-02T16:11:00Z,28.9511,-88.2502,13.5,29.8,11111222
Chevron,ioos:station:wmo:42888:1,2021-08-02T16:21:00Z,28.9511,-88.2502,13.7,29.8,11111222
Chevron,ioos:station:wmo:42888:1,2021-08-02T16:31:00Z,28.9511,-88.2502,13.6,29.8,11111222
Chevron,ioos:station:wmo:42888:1,2021-08-02T16:41:00Z,28.9512,-88.2502,13.7,29.8,11111222
Chevron,ioos:station:wmo:42888:1,2021-08-02T16:51:00Z,28.9511,-88.2502,13.7,29.8,11111222
Chevron,ioos:station:wmo:42888:1,2021-08-02T17:01:00Z,28.9511,-88.2502,13.6,29.8,11111222
Chevron,ioos:station:wmo:42888:1,2021-08-02T17:11:00Z,28.9511,-88.2501,13.6,29.8,11111222
Chevron,ioos:station:wmo:42888:1,2021-08-02T17:21:00Z,28.9511,-88.2502,13.6,29.8,11111222
Chevron,ioos:station:wmo:42888:1,2021-08-02T17:31:00Z,28.9511,-88.2502,13.4,29.7,11111222
Chevron,ioos:station:wmo:42888:1,2021-08-02T17:41:00Z,28.9512,-88.2501,13.7,29.7,11111222
Chevron,ioos:station:wmo:42888:1,2021-08-02T17:51:00Z,28.9511,-88.2501,13.7,29.7,11111222
Chevron,ioos:station:wmo:42888:1,2021-08-02T18:01:00Z,28.9511,-88.2502,13.4,29.7,11111222
Chevron,ioos:station:wmo:42888:1,2021-08-02T18:11:00Z,28.9511,-88.2502,13.5,29.7,11111222
Chevron,ioos:station:wmo:42888:1,2021-08-02T18:21:00Z,28.9511,-88.2502,13.5,29.7,11111222
Chevron,ioos:station:wmo:42888:1,2021-08-02T18:31:00Z,28.9511,-88.2502,13.9,29.7,11111222
Chevron,ioos:station:wmo:42888:1,2021-08-02T18:41:00Z,28.9512,-88.2502,13.6,29.7,11111222
Chevron,ioos:station:wmo:42888:1,2021-08-02T18:51:00Z,28.9511,-88.2502,13.7,29.6,11111222
Chevron,ioos:station:wmo:42888:1,2021-08-02T19:01:00Z,28.9511,-88.2501,13.7,29.6,11111222
Chevron,ioos:station:wmo:42888:1,2021-08-02T19:11:00Z,28.9511,-88.2502,13.7,29.5,11111222
Chevron,ioos:station:wmo:42888:1,2021-08-02T19:21:00Z,28.9512,-88.2502,13.5,29.6,11111222
Chevron,ioos:station:wmo:42888:1,2021-08-02T19:31:00Z,28.9511,-88.2501,13.8,29.6,11111222
Chevron,ioos:station:wmo:42888:1,2021-08-02T19:41:00Z,28.9511,-88.2501,13.7,29.5,11111222